Flag Weather past 2 weeks in Nanning, Guangxi, China

Now
73 °F

Fog.


Feels Like: 72 °F
Forecast: 70 / 83 °F
Wind: 8 mph from Southeast

Location: Nanning Airport

Current Time: Nov 27, 2014 at 9:58:20 AM

Latest Report: Nov 27, 2014 at 9:00 AM


Visibility: 3 mi

Pressure: 29.92 "Hg

Humidity: 89%

Dew point: 70 °F

Location of NanningLocation

Historic Weather in Nanning — Graph

°F

Nanning temperature yesterday

Maximum temperature yesterday: 75 °F (at 5:00 PM)
Minimum temperature yesterday: 64 °F (at 2:00 AM)
Average temperature yesterday: 68 °F

Past Weeks' High & Low Weather Summary

 TemperatureHumidityPressure
High84 °F (Nov 25, 1:00 PM)100% (Nov 13, 3:00 AM)30.33 "Hg (Nov 13, 3:00 AM)
Low54 °F (Nov 20, 7:00 AM)50% (Nov 14, 12:00 PM)29.83 "Hg (Nov 26, 3:00 PM)
Average67 °F80%30.07 "Hg
* Reported Nov 12 8:00 AM — Nov 27 8:00 AM, Nanning, Weather by CustomWeather, © 2014

Note: Actual official high and low records may vary slightly from our data, if they occured in-between our weather recording intervals... More about our weather records

Advertising

Nanning weather history for previous 24 hours

 ConditionsComfort  
Time TempWeatherWind HumidityBarometerVisibility
8:00 AM
Nov 27
72 °FFog.3 mph94%29.92 "Hg2 mi
7:00 AM70 °FFog.1 mph100%29.92 "Hg2 mi
6:00 AM70 °FFog.1 mph100%29.89 "Hg3 mi
5:00 AM72 °FFog.1 mph94%29.89 "Hg3 mi
4:00 AM70 °FPartly cloudy.1 mph94%29.86 "Hg4 mi
3:00 AM70 °FPassing clouds.3 mph100%29.89 "Hg4 mi
2:00 AM70 °FPassing clouds.1 mph94%29.89 "Hg4 mi
1:00 AM70 °FFog.6 mph94%29.89 "Hg3 mi
12:00 AM68 °FFog.3 mph94%29.89 "Hg3 mi
10:00 PM
Nov 26
68 °FFog.3 mph94%29.89 "Hg3 mi
9:00 PM72 °FClear.1 mph83%29.86 "Hg4 mi
8:00 PM72 °FClear.3 mph83%29.86 "Hg4 mi
7:00 PM72 °FClear.3 mph83%29.83 "Hg10 mi
6:00 PM73 °FPassing clouds.3 mph78%29.83 "HgN/A
5:00 PM75 °FPassing clouds.3 mph74%29.83 "HgN/A
4:00 PM73 °FPassing clouds.3 mph74%29.83 "HgN/A
3:00 PM72 °FPassing clouds.6 mph73%29.83 "HgN/A
2:00 PM73 °FBroken clouds.3 mph69%29.89 "HgN/A
1:00 PM72 °FBroken clouds.3 mph69%29.92 "HgN/A
12:00 PM70 °FBroken clouds.6 mph73%29.95 "HgN/A
11:00 AM68 °FBroken clouds.6 mph73%29.98 "HgN/A
10:00 AM66 °FScattered clouds.6 mph78%30.01 "HgN/A
9:00 AM66 °FPassing clouds.6 mph78%29.98 "HgN/A
Weather by CustomWeather, © 2014

See weather overviewHow to use our weather pages